Location: Observatory
(49.4490°N, 2.6360°W)
Time: 05:39:48
(UTC+00:00)

ISS - Visible Passes

Search period start: 04 March 2024 00:00
Search period end: 14 March 2024 00:00
Orbit: 414 x 422 km, 51.6° (Epoch: 04 March)

Date Brightness Start Highest point End Pass type
(mag) Time Alt. Az. Time Alt. Az. Time Alt. Az.
04 Mar -0.4 03:36:46 12° E 03:36:46 12° E 03:37:01 10° E visible
04 Mar -3.7 05:09:42 44° W 05:10:30 60° SSW 05:13:50 10° SE visible
05 Mar -2.4 04:23:46 36° ESE 04:23:46 36° ESE 04:25:53 10° ESE visible
05 Mar -2.1 05:56:42 12° W 05:58:54 20° SW 06:01:29 10° S visible
06 Mar -2.8 05:10:52 29° SW 05:11:01 29° SW 05:14:01 10° SSE visible
07 Mar -1.6 04:25:07 19° SE 04:25:07 19° SE 04:26:16 10° SE visible
08 Mar -1.4 05:12:27 12° SSW 05:12:27 12° SSW 05:13:05 10° S visible
13 Mar -1.6 19:30:38 10° S 19:31:32 13° SSE 19:31:32 13° SSE visible
